Tracking 28790 objects as of 18-Apr-2024
HD Live streaming from Space Station
objects crossing your sky now

SL-12 R/B(2)

Track SL-12 R/B(2) now!


NORAD ID: 22044
Int'l Code: 1992-043D
Perigee: 36,382.5 km
Apogee: 36,602.8 km
Inclination: 15.0 °
Period: 1,471.9 minutes
Semi major axis: 42863 km
RCS: 2.411 m2 (large)
Launch date: July 14, 1992
Source: Commonwealth of Independent States (former USSR) (CIS)
Launch site: TYURATAM MISSILE AND SPACE COMPLEX (TTMTR)

Note: This is a ROCKET BODY
Your satellite tracking list
Your tracking list is empty




NASA's NSSDC Master Catalog

Two Line Element Set (TLE):
1 22044U 92043D   24108.69087553 -.00000045  00000-0  00000-0 0  9998
2 22044  15.0222 352.1809 0025699 171.0398  10.7049  0.97829473111827
Source of the keplerian elements: AFSPC